Chertsey, United Kingdom
Current Conditions -  °F | °C
As of 9:50 PM on Wednesday 26 Nov 2014 (Local Time) from EGLL Reporting Station
Light Rain Light Rain  
Wind Chill: 50°   Ceiling: 200
Heat Index: 50°   Visibility: 1.2mi
Dew Point: 48°   Wind: 2mph
Humidity: 94%   Direction: NA
Pressure: 29.77"   Gusts: NA
Location:  51.39°N, 0.51°W
Report Text: EGLL 262150Z VRB02KT 2000 -RADZ BKN002 10/09 Q1008 TEMPO 1400
Loading
Personal Weather Stations






























Interactive Weather Map New forecast layout! Learn more

10-Day Weather Forecast

Advertisements
Track Severe Weather on mobile